This is the latest recevied weather packets stored in our database for station/object KC9DRE. If no packets are shown the sender has not sent any weather packets the latest 10 day(s).
| Time | Temp. | Humidity | Pressure | Rain* | Wind** | Luminosity | Snow |
|---|---|---|---|---|---|---|---|
| 1787836994 | 20.56° C | 98% | 1016.2 hPa | 0 mm | - | 166 W/m² | - |
| 1787836689 | 20.56° C | 98% | 1016.3 hPa | 0 mm | - | 192 W/m² | - |
| 1787836388 | 20° C | 98% | 1016.4 hPa | 0 mm | - | 180 W/m² | - |
| 1787836084 | 20° C | 98% | 1016.4 hPa | 0 mm | - | 122 W/m² | - |
| 1787835780 | 20° C | 98% | 1016.4 hPa | 0 mm | - | 146 W/m² | - |
| 1787835479 | 19.44° C | 98% | 1016.1 hPa | 0 mm | - | 113 W/m² | - |
| 1787835175 | 19.44° C | 98% | 1016.1 hPa | 0 mm | - | 113 W/m² | - |
| 1787834875 | 19.44° C | 98% | 1016.2 hPa | 0 mm | - | 112 W/m² | - |
| 1787834574 | 19.44° C | 98% | 1015.8 hPa | 0 mm | - | 103 W/m² | - |
| 1787834275 | 19.44° C | 98% | 1015.7 hPa | 0 mm | - | 104 W/m² | - |
| 1787833971 | 18.89° C | 99% | 1015.8 hPa | 0 mm | - | 88 W/m² | - |
| 1787833666 | 18.89° C | 99% | 1015.6 hPa | 0 mm | - | 83 W/m² | - |
| 1787833361 | 18.33° C | 99% | 1015.4 hPa | 0 mm | - | 78 W/m² | - |
| 1787833056 | 18.33° C | 99% | 1015.5 hPa | 0 mm | - | 68 W/m² | - |
| 1787832752 | 17.78° C | 98% | 1015.6 hPa | 0 mm | - | 64 W/m² | - |
| 1787832452 | 17.78° C | 99% | 1015.5 hPa | 0 mm | - | 58 W/m² | - |
| 1787832151 | 17.22° C | 98% | 1015.4 hPa | 0 mm | - | 50 W/m² | - |
| 1787831849 | 17.22° C | 98% | 1015.4 hPa | 0 mm | - | 42 W/m² | - |
| 1787831545 | 16.67° C | 98% | 1015.3 hPa | 0 mm | - | 37 W/m² | - |
| 1787831243 | 16.67° C | 98% | 1015.4 hPa | 0 mm | - | 36 W/m² | - |
| 1787830940 | 16.11° C | 98% | 1015.3 hPa | 0 mm | - | 29 W/m² | - |
| 1787830634 | 16.11° C | 98% | 1015.3 hPa | 0 mm | - | 23 W/m² | - |
| 1787830334 | 16.11° C | 98% | 1015.3 hPa | 0 mm | - | 19 W/m² | - |
| 1787830028 | 16.11° C | 98% | 1015.1 hPa | 0 mm | - | 14 W/m² | - |
| 1787829728 | 16.11° C | 98% | 1014.9 hPa | 0 mm | - | 11 W/m² | - |
* Rain latest hour (hover to see other rain measurements)
** Current wind speed in m/s (hover to see current wind gust speed)